IZ8XTV-13 Weather Reports


time (UTC)temp
F
wind
direction
speed
knots
gust
knots
rain 1hr
in
rain 24hr
in
rain mn
in
humidity
%
barometer
mb
20260507213945 65 0 0.0 0.0 0.00 0.00 0.00 99 1012.1
20260507212933 65 0 0.0 0.0 0.00 0.00 0.00 99 1012.1
20260507211921 65 0 0.0 0.0 0.00 0.00 0.00 99 1012.2
20260507210908 65 0 0.0 0.0 0.00 0.00 0.00 99 1012.4
20260507205856 66 0 0.0 0.0 0.00 0.00 0.00 99 1012.5
20260507204844 65 0 0.0 0.0 0.00 0.00 0.00 99 1012.5
20260507203832 66 0 0.0 0.0 0.00 0.00 0.00 99 1012.6
20260507202821 66 0 0.0 0.0 0.00 0.00 0.00 99 1012.5
20260507201808 67 0 0.0 0.0 0.00 0.00 0.00 99 1012.6
20260507200756 67 0 0.0 0.0 0.00 0.00 0.00 99 1012.4
20260507195744 67 0 0.0 0.0 0.00 0.00 0.00 99 1012.3
20260507194732 67 0 0.0 0.0 0.00 0.00 0.00 99 1012.2
20260507193720 68 0 0.0 0.0 0.00 0.00 0.00 99 1012.4
20260507192708 68 0 0.0 0.0 0.00 0.00 0.00 99 1012.6
20260507191656 68 0 0.0 0.0 0.00 0.00 0.00 99 1012.7
20260507190645 68 0 0.0 0.0 0.00 0.00 0.00 99 1012.5
20260507185633 69 0 0.0 0.0 0.00 0.00 0.00 99 1012.4
20260507184622 69 0 0.0 0.0 0.00 0.00 0.00 99 1012.2
20260507183610 69 0 0.0 0.0 0.00 0.00 0.00 99 1012.0
20260507182559 69 0 0.0 0.0 0.00 0.00 0.00 99 1011.9
20260507181547 70 0 0.0 0.0 0.00 0.00 0.00 99 1011.8
20260507180536 70 0 0.0 0.0 0.00 0.00 0.00 99 1011.8
20260507175525 71 0 0.0 0.0 0.00 0.00 0.00 99 1011.9
20260507174512 71 0 0.0 0.0 0.00 0.00 0.00 99 1011.8
20260507173501 72 0 0.0 0.0 0.00 0.00 0.00 99 1011.7
20260507172451 72 0 0.0 0.0 0.00 0.00 0.00 99 1011.6
20260507171437 73 0 0.0 0.0 0.00 0.00 0.00 98 1011.7
20260507170425 73 0 0.0 0.0 0.00 0.00 0.00 95 1011.4
20260507165413 74 0 0.0 0.0 0.00 0.00 0.00 91 1011.4
20260507164402 75 0 0.0 0.0 0.00 0.00 0.00 87 1011.4
20260507163351 75 0 0.0 0.0 0.00 0.00 0.00 88 1011.4
20260507162340 76 0 0.0 0.0 0.00 0.00 0.00 87 1011.3
20260507161328 75 0 0.0 0.0 0.00 0.00 0.00 87 1011.5
20260507160316 75 0 0.0 0.0 0.00 0.00 0.00 87 1011.5
20260507155306 76 0 0.0 0.0 0.00 0.00 0.00 87 1011.6
20260507155020 75 0 0.0 0.0 0.00 0.00 0.00 87 1011.6
20260507154010 76 0 0.0 0.0 0.00 0.00 0.00 85 1011.7
20260507152958 76 0 0.0 0.0 0.00 0.00 0.00 85 1011.8
20260507151947 76 0 0.0 0.0 0.00 0.00 0.00 83 1011.9
20260507150936 77 0 0.0 0.0 0.00 0.00 0.00 81 1011.9
20260507145925 77 0 0.0 0.0 0.00 0.00 0.00 80 1012.0
20260507144914 77 0 0.0 0.0 0.00 0.00 0.00 79 1011.8
20260507143903 77 0 0.0 0.0 0.00 0.00 0.00 80 1012.0
20260507142852 77 0 0.0 0.0 0.00 0.00 0.00 75 1012.1
20260507141841 78 0 0.0 0.0 0.00 0.00 0.00 74 1012.2
20260507140830 78 0 0.0 0.0 0.00 0.00 0.00 73 1012.3
20260507135819 77 0 0.0 0.0 0.00 0.00 0.00 74 1012.3
20260507134808 78 0 0.0 0.0 0.00 0.00 0.00 74 1012.4
20260507133757 77 0 0.0 0.0 0.00 0.00 0.00 76 1012.4
20260507132746 77 0 0.0 0.0 0.00 0.00 0.00 76 1012.5
20260507131735 77 0 0.0 0.0 0.00 0.00 0.00 77 1012.6
20260507130724 78 0 0.0 0.0 0.00 0.00 0.00 76 1012.7
20260507125713 77 0 0.0 0.0 0.00 0.00 0.00 76 1012.9
20260507124702 77 0 0.0 0.0 0.00 0.00 0.00 76 1013.0
20260507123651 77 0 0.0 0.0 0.00 0.00 0.00 77 1013.2
20260507122639 78 0 0.0 0.0 0.00 0.00 0.00 77 1013.3
20260507121628 77 0 0.0 0.0 0.00 0.00 0.00 79 1013.2
20260507120617 77 0 0.0 0.0 0.00 0.00 0.00 79 1013.3
20260507115606 76 0 0.0 0.0 0.00 0.00 0.00 80 1013.4
20260507114555 76 0 0.0 0.0 0.00 0.00 0.00 86 1013.5
20260507113544 77 0 0.0 0.0 0.00 0.00 0.00 86 1013.6
20260507112532 76 0 0.0 0.0 0.00 0.00 0.00 87 1013.8
20260507111520 77 0 0.0 0.0 0.00 0.00 0.00 87 1013.9
20260507110507 77 0 0.0 0.0 0.00 0.00 0.00 87 1013.9
20260507105454 77 0 0.0 0.0 0.00 0.00 0.00 88 1014.0
20260507104443 76 0 0.0 0.0 0.00 0.00 0.00 91 1014.2
20260507103432 75 0 0.0 0.0 0.00 0.00 0.00 94 1014.2
20260507102420 74 0 0.0 0.0 0.00 0.00 0.00 96 1013.9
20260507101409 74 0 0.0 0.0 0.00 0.00 0.00 97 1014.1
20260507100358 73 0 0.0 0.0 0.00 0.00 0.00 96 1014.0
20260507095345 73 0 0.0 0.0 0.00 0.00 0.00 99 1014.2
20260507094334 72 0 0.0 0.0 0.00 0.00 0.00 99 1014.1
20260507093321 72 0 0.0 0.0 0.00 0.00 0.00 99 1014.2
20260507092309 71 0 0.0 0.0 0.00 0.00 0.00 99 1014.1
20260507091257 70 0 0.0 0.0 0.00 0.00 0.00 99 1014.2
20260507090245 70 0 0.0 0.0 0.00 0.00 0.00 99 1014.3
20260507085233 69 0 0.0 0.0 0.00 0.00 0.00 99 1014.3
20260507084220 69 0 0.0 0.0 0.00 0.00 0.00 99 1014.3
20260507083209 71 0 0.0 0.0 0.00 0.00 0.00 99 1014.5
20260507082158 69 0 0.0 0.0 0.00 0.00 0.00 99 1014.6
20260507081145 69 0 0.0 0.0 0.00 0.00 0.00 99 1014.6
20260507080132 67 0 0.0 0.0 0.00 0.00 0.00 99 1014.5
20260507075121 67 0 0.0 0.0 0.00 0.00 0.00 99 1014.4
20260507074109 66 0 0.0 0.0 0.00 0.00 0.00 99 1014.4
20260507073058 65 0 0.0 0.0 0.00 0.00 0.00 99 1014.4
20260507072046 65 0 0.0 0.0 0.00 0.00 0.00 99 1014.6
20260507071034 65 0 0.0 0.0 0.00 0.00 0.00 99 1014.6
20260507070023 64 0 0.0 0.0 0.00 0.00 0.00 99 1014.5
20260507065011 63 0 0.0 0.0 0.00 0.00 0.00 99 1014.4
20260507063959 63 0 0.0 0.0 0.00 0.00 0.00 99 1014.4
20260507062947 62 0 0.0 0.0 0.00 0.00 0.00 99 1014.5
20260507061935 62 0 0.0 0.0 0.00 0.00 0.00 99 1014.6
20260507060922 61 0 0.0 0.0 0.00 0.00 0.00 99 1014.7
20260507055911 60 0 0.0 0.0 0.00 0.00 0.00 99 1014.6
20260507054859 60 0 0.0 0.0 0.00 0.00 0.00 99 1014.7
20260507053846 60 0 0.0 0.0 0.00 0.00 0.00 99 1014.6
20260507052835 60 0 0.0 0.0 0.00 0.00 0.00 99 1014.4
20260507051823 59 0 0.0 0.0 0.00 0.00 0.00 99 1014.2
20260507050811 59 0 0.0 0.0 0.00 0.00 0.00 99 1014.1
20260507045759 59 0 0.0 0.0 0.00 0.00 0.00 99 1014.2
20260507044747 58 0 0.0 0.0 0.00 0.00 0.00 99 1014.1
20260507043734 58 0 0.0 0.0 0.00 0.00 0.00 99 1013.9
20260507042723 58 0 0.0 0.0 0.00 0.00 0.00 99 1013.9
20260507041711 58 0 0.0 0.0 0.00 0.00 0.00 99 1013.9
20260507040658 59 0 0.0 0.0 0.00 0.00 0.00 99 1013.9
20260507035645 59 0 0.0 0.0 0.00 0.00 0.00 99 1013.8
20260507034633 59 0 0.0 0.0 0.00 0.00 0.00 99 1013.6
20260507033622 59 0 0.0 0.0 0.00 0.00 0.00 99 1013.8
20260507032609 59 0 0.0 0.0 0.00 0.00 0.00 99 1013.8
20260507031557 59 0 0.0 0.0 0.00 0.00 0.00 99 1013.9
20260507030545 60 0 0.0 0.0 0.00 0.00 0.00 99 1014.1
20260507025534 60 0 0.0 0.0 0.00 0.00 0.00 99 1014.1
20260507024521 60 0 0.0 0.0 0.00 0.00 0.00 99 1014.1
20260507023510 60 0 0.0 0.0 0.00 0.00 0.00 99 1014.7
20260507022458 60 0 0.0 0.0 0.00 0.00 0.00 99 1014.5
20260507021444 60 0 0.0 0.0 0.00 0.00 0.00 99 1014.7
20260507020433 60 0 0.0 0.0 0.00 0.00 0.00 99 1014.5
20260507015422 60 0 0.0 0.0 0.00 0.00 0.00 99 1014.3
20260507014410 60 0 0.0 0.0 0.00 0.00 0.00 99 1014.3
20260507013358 60 0 0.0 0.0 0.00 0.00 0.00 99 1014.5
20260507012345 60 0 0.0 0.0 0.00 0.00 0.00 99 1014.4
20260507011334 60 0 0.0 0.0 0.00 0.00 0.00 99 1014.5
20260507010322 60 0 0.0 0.0 0.00 0.00 0.00 99 1014.4
20260507005310 60 0 0.0 0.0 0.00 0.00 0.00 99 1014.5
20260507004258 60 0 0.0 0.0 0.00 0.00 0.00 99 1014.4
20260507003246 60 0 0.0 0.0 0.00 0.00 0.00 99 1014.5
20260507002235 60 0 0.0 0.0 0.00 0.00 0.00 99 1014.8
20260507001223 61 0 0.0 0.0 0.00 0.00 0.00 99 1014.8
20260507000212 61 0 0.0 0.0 0.00 0.00 0.00 99 1014.9
20260506235159 61 0 0.0 0.0 0.00 0.00 0.00 99 1015.0
20260506234146 61 0 0.0 0.0 0.00 0.00 0.00 99 1015.0
20260506233134 61 0 0.0 0.0 0.00 0.00 0.00 99 1015.1
20260506232122 61 0 0.0 0.0 0.00 0.00 0.00 99 1015.2
20260506231109 61 0 0.0 0.0 0.00 0.00 0.00 99 1015.2
20260506230058 62 0 0.0 0.0 0.00 0.00 0.00 99 1015.4
20260506225046 62 0 0.0 0.0 0.00 0.00 0.00 99 1015.6
20260506224035 62 0 0.0 0.0 0.00 0.00 0.00 99 1015.6
20260506223024 62 0 0.0 0.0 0.00 0.00 0.00 99 1015.7
20260506222012 62 0 0.0 0.0 0.00 0.00 0.00 99 1015.8
20260506221000 62 0 0.0 0.0 0.00 0.00 0.00 99 1015.5
20260506215948 63 0 0.0 0.0 0.00 0.00 0.00 99 1015.5
20260506214937 62 0 0.0 0.0 0.00 0.00 0.00 99 1015.6